This demonstration page uses our WeatherBlox Daily Observations layout. Learn more.

Left ArrowRight Arrow

Hourly Observations for May 2, 2016

Temp ( °F °C ) Dew Point ( °F °C ) Humidity (%) Winds ( mph kmh ) Pressure ( in mb ) Visibility ( mi km ) Precip ( " mm )
12:51 am 00:51 Mostly Clear 54 12.2 31 -0.6 42 42 E 6 9 29.94 1014 10 16 0.00 0.00
1:51 am 01:51 Clear 57 13.9 34 1.1 42 42 SE 12 19 29.95 1014 10 16 0.00 0.00
2:51 am 02:51 Clear 53 11.7 33 0.6 47 47 SSE 7 11 29.97 1015 10 16 0.00 0.00
3:51 am 03:51 Clear 53 11.7 33 0.6 47 47 SSE 9 15 30.00 1016 10 16 0.00 0.00
4:51 am 04:51 Clear 51 10.6 33 0.6 50 50 SSE 9 15 30.03 1017 10 16 0.00 0.00
5:51 am 05:51 Sunny 50 10 33 0.6 52 52 SSE 6 9 30.06 1018 10 16 0.00 0.00
6:51 am 06:51 Sunny 53 11.7 33 0.6 47 47 S 9 15 30.09 1019 10 16 0.00 0.00
7:51 am 07:51 Sunny 57 13.9 34 1.1 42 42 S 13 20 30.09 1019 10 16 0.00 0.00
8:51 am 08:51 Sunny 61 16.1 33 0.6 35 35 SE 15 24 30.09 1019 10 16 0.00 0.00
9:51 am 09:51 Sunny 65 18.3 33 0.6 31 31 ESE 15 24 30.07 1018 10 16 0.00 0.00
10:51 am 10:51 Sunny 68 20 33 0.6 27 27 ESE 17 28 30.04 1017 10 16 0.00 0.00
11:51 am 11:51 Sunny 70 21.1 33 0.6 26 26 S 12 19 30.01 1016 10 16 0.00 0.00
12:51 pm 12:51 Sunny 73 22.8 33 0.6 23 23 SE 15 24 29.98 1015 10 16 0.00 0.00
1:51 pm 13:51 Sunny 76 24.4 31 -0.6 19 19 SE 12 19 29.93 1014 10 16 0.00 0.00
2:51 pm 14:51 Sunny 76 24.4 30 -1.1 18 18 Calm 29.91 1013 10 16 0.00 0.00
3:51 pm 15:51 Sunny 77 25 29 -1.7 17 17 S 10 17 29.88 1012 10 16 0.00 0.00
4:51 pm 16:51 Sunny 77 25 25 -3.9 14 14 VRB 5 7 29.88 1012 10 16 0.00 0.00
5:51 pm 17:51 Sunny 78 25.6 26 -3.3 15 15 SE 8 13 29.86 1011 10 16 0.00 0.00
6:51 pm 18:51 Sunny 75 23.9 26 -3.3 16 16 ENE 5 7 29.86 1011 10 16 0.00 0.00
7:51 pm 19:51 Clear 68 20 24 -4.4 19 19 NE 7 11 29.87 1012 10 16 0.00 0.00
8:51 pm 20:51 Clear 66 18.9 24 -4.4 20 20 ESE 6 9 29.88 1012 10 16 0.00 0.03
9:51 pm 21:51 Clear 66 18.9 28 -2.2 24 24 S 3 6 29.89 1012 10 16 0.00 0.00
10:51 pm 22:51 Clear 61 16.1 26 -3.3 26 26 SE 3 6 29.89 1012 10 16 0.00 0.00
11:51 pm 23:51 Clear 61 16.1 27 -2.8 27 27 E 9 15 29.89 1012 10 16 0.00 0.00

Powered by AerisWeather